Weather History for Mazatlan Airport, Mexico

Change the Weather History Date:

Thursday, April 11, 2013

  Actual Average Record
Temperature  
Mean Temperature 68 °F -  
Max Temperature 80 °F 80 °F 87 °F (2003)
Min Temperature 55 °F 56 °F 48 °F (2005)
Cooling Degree Days 2    
Growing Degree Days 18 (Base 50)    
Moisture  
Dew Point 52 °F    
Average Humidity 58    
Maximum Humidity 82    
Minimum Humidity 39    
Precipitation  
Precipitation 0.00 in - - ()
Sea Level Pressure  
Sea Level Pressure 29.82 in    
Wind  
Wind Speed 7 mph ()    
Max Wind Speed 14 mph    
Max Gust Speed -    
Visibility 11.9 miles    
Events      
Averages and records for this station are not official NWS values.
T = Trace of Precipitation, MM = Missing Value Source: Averaged Metar Reports

Daily Weather History Graph

Daily Weather History Graph

Search for Another Location

Airport:

Trip Planner

Search our weather history database for the weather conditions in past years. The results will help you decide how hot, cold, wet, or windy it might be!

Date:

Astronomy

Apr. 11, 2013 Rise Set
Actual Time 6:47 AM MDT 7:24 PM MDT
Civil Twilight 6:24 AM MDT 7:47 PM MDT
Nautical Twilight 5:58 AM MDT 8:14 PM MDT
Astronomical Twilight 5:30 AM MDT 8:41 PM MDT
Moon 7:30 AM MDT (4/11) 8:48 PM MDT (4/11)
Length of Visible Light 13h 22m
Length of Day
12h 36m
New Moon, 2% of the Moon is Illuminated
Apr 11
New Moon
Apr 18
First Quarter
Apr 25
Full
May 2
Last Quarter
May 9
New

Hourly Weather History & Observations

Time (MDT) Temp. Heat Index Dew Point Humidity Pressure Visibility Wind Dir Wind Speed Gust Speed Precip Events Conditions
12:40 AM 62.6 °F - 51.8 °F 68% 29.86 in 10.0 mi NW 8.1 mph - N/A   Clear
1:41 AM 59.0 °F - 50.0 °F 72% 29.84 in 10.0 mi North 4.6 mph - N/A   Scattered Clouds
2:42 AM 57.2 °F - 51.8 °F 82% 29.83 in 10.0 mi North 8.1 mph - N/A   Scattered Clouds
3:00 AM 67 °F - 55 °F 56% 29.83 in - NW 4.5 mph - -  
3:40 AM 55.4 °F - 48.2 °F 77% 29.81 in 10.0 mi NNE 6.9 mph - N/A   Scattered Clouds
4:43 AM 55.4 °F - 39.2 °F 54% 29.80 in 10.0 mi NE 8.1 mph - N/A   Scattered Clouds
5:43 AM 55.4 °F - 48.2 °F 77% 29.81 in 10.0 mi NNE 6.9 mph - N/A   Scattered Clouds
6:00 AM 64 °F - 54 °F 62% 29.83 in - NW 2.2 mph - -  
6:48 AM 55.4 °F - 48.2 °F 77% 29.84 in 8.0 mi North 6.9 mph - N/A   Clear
7:43 AM 57.2 °F - 50.0 °F 77% 29.84 in 10.0 mi North 6.9 mph - N/A   Clear
8:44 AM 64.4 °F - 55.4 °F 73% 29.85 in 12.0 mi NE 6.9 mph - N/A   Clear
9:00 AM 74 °F - 58 °F 49% 29.86 in - ESE 2.2 mph - -  
9:40 AM 71.6 °F - 55.4 °F 57% 29.86 in 15.0 mi East 6.9 mph - N/A   Clear
10:42 AM 75.2 °F - 55.4 °F 50% 29.86 in 15.0 mi SSW 8.1 mph - N/A   Clear
11:42 AM 78.8 °F - 53.6 °F 42% 29.84 in 15.0 mi South 10.4 mph - N/A   Clear
12:42 PM 78.8 °F - 53.6 °F 42% 29.85 in 15.0 mi SSW 13.8 mph - N/A   Clear
1:41 PM 80.6 °F 80.3 °F 53.6 °F 39% 29.84 in 15.0 mi SSW 11.5 mph - N/A   Clear
2:43 PM 78.8 °F - 53.6 °F 42% 29.82 in 13.0 mi WSW 13.8 mph - N/A   Partly Cloudy
3:45 PM 78.8 °F - 53.6 °F 42% 29.79 in 14.0 mi West 10.4 mph - N/A   Partly Cloudy
4:42 PM 78.8 °F - 51.8 °F 39% 29.75 in 14.0 mi WSW 13.8 mph - N/A   Partly Cloudy
5:42 PM 77.0 °F - 51.8 °F 41% 29.76 in 14.0 mi SW 11.5 mph - N/A   Scattered Clouds
6:48 PM 73.4 °F - 51.8 °F 47% 29.74 in 14.0 mi WSW 13.8 mph - N/A   Scattered Clouds
7:44 PM 69.8 °F - 53.6 °F 56% 29.77 in 12.0 mi WSW 11.5 mph - N/A   Scattered Clouds
8:41 PM 68.0 °F - 51.8 °F 56% 29.81 in 10.0 mi West 6.9 mph - N/A   Partly Cloudy
9:45 PM 62.6 °F - 48.2 °F 59% 29.82 in 10.0 mi NNE 5.8 mph - N/A   Clear
10:46 PM 60.8 °F - 50.0 °F 68% 29.84 in 10.0 mi NNE 13.8 mph - N/A   Clear
11:43 PM 57.2 °F - 48.2 °F 72% 29.86 in 10.0 mi ESE 6.9 mph - N/A   Clear